UPDATE 02.09.20 Die Stationsgrafiken wurden erweitert. Temperaturgrafik und Regentage unter Almanach -> Seperate Stationsgrafiken -> Temperatur
Besuchen Sie den Menüpunkt "Almanach / History" WU-Grafiken um Wetterdaten über die Jahre zu vergleichen!
Die Daten stammen von meiner Wetterstation und wurden von Weatherunderground aufgezeichnet.

Rindlberg West Mehr Informationen Rindlberg West


Stuetzi - Rindlberg Ost Mehr Informationen Stuetzi - Rindlberg Ost


Regenradar Mehr Informationen rain snow radar


Sie finden meine Wetter-Infos auch auf:

Weather Underground

AWEKAS



IOBERSTE7 History tables / reports. Script startWUhistory.php

Wählen sie eine andere Periode ( ausblenden )

Einheiten Zeitraum Benutzerdef. Zeitraum Direkt zu
metrisch Englisch Beide
Täglich Wöchentlich Monatlich Jährlich
Beide Datumseingaben nutzen um einen Bereich festzulegen
vorheriger Tag
Mit diesem Datum

WU Grafiken für diese Periode ( klicken ) Loading the graph can take up to a minute!


Täglich Zusammenfassung für Donnerstag Oct 1 2020
Zeit Temp. ( °C ) Taupt. ( °C ) Wind ( km/h ) von Windböen ( km/h ) Luftdruck ( hPa ) Luftf.( % ) Regenrate ( cm )
Hoch16,5 10,0 18,0 NNW ( 317/1061 ) 18,0 1013,9 98 -
Durchchnittswerte8,9 5,6 4,0 Windstille #145/264 5,0 1009,5 81 -
Tief3,2 1,6 -   0,0 1006,8 63 -
Täglich tabellarische Details für Donnerstag Oct 1 2020
Zeit Temp. ( °C ) Taupt. ( °C ) Wind ( km/h ) von Windböen ( km/h ) Luftdruck ( hPa ) Luftf.( % ) Regenrate ( cm )
00:00 4,2 2,2   Windstille 5,0 1013,9 87 -
00:39 3,9 2,1   Windstille 5,0 1013,9 88 -
00:44 3,9 2,1   Windstille 5,0 1013,9 88 -
00:49 3,9 2,1   Windstille   1013,9 88 -
00:54 3,9 2,3   Windstille   1013,9 89 -
00:59 3,9 2,3   Windstille   1013,9 89 -
01:04 3,9 2,3   Windstille   1013,9 89 -
01:09 3,8 2,2   Windstille   1013,9 89 -
01:14 3,8 2,0   Windstille   1013,9 88 -
01:19 3,7 1,9   Windstille   1012,9 88 -
01:24 3,7 1,9   Windstille   1012,9 88 -
01:29 3,6 1,8   Windstille   1012,9 88 -
01:34 3,6 1,8   Windstille   1012,9 88 -
01:39 3,5 1,7   Windstille   1012,9 88 -
01:44 3,5 1,7 6,0 NNW   1012,9 88 -
01:49 3,4 1,6 6,0 NNW 6,0 1012,9 88 -
01:54 3,4 1,6 5,0 NNW 6,0 1012,9 88 -
01:59 3,4 1,6   Windstille 6,0 1012,9 88 -
02:04 3,4 1,6   Windstille 6,0 1012,9 88 -
02:09 3,4 1,8   Windstille 6,0 1012,9 89 -
02:14 3,5 1,9   Windstille 3,0 1012,9 89 -
02:19 3,5 1,9   Windstille   1012,9 89 -
02:24 3,5 1,9   Windstille   1012,9 89 -
02:29 3,5 1,9   Windstille   1012,9 89 -
02:34 3,5 1,9   Windstille   1012,9 89 -
02:39 3,6 2,1   Windstille   1012,9 90 -
02:44 3,6 2,1   Windstille   1012,9 90 -
02:49 3,7 2,2   Windstille   1012,9 90 -
02:54 3,7 2,2   Windstille   1012,9 90 -
02:59 3,7 2,2   Windstille   1012,9 90 -
03:04 3,7 2,2   Windstille   1011,9 90 -
03:09 3,7 2,2   Windstille   1011,9 90 -
03:14 3,7 2,2   Windstille   1011,9 90 -
03:19 3,7 2,2   Windstille   1011,9 90 -
03:24 3,7 2,2   Windstille   1011,9 90 -
03:29 3,6 2,1 5,0 NNW   1011,9 90 -
03:34 3,6 2,1 6,0 NNW 5,0 1011,9 90 -
03:39 3,6 2,1   Windstille 6,0 1011,9 90 -
03:43 3,6 2,1   Windstille 6,0 1011,9 90 -
03:49 3,6 2,1   Windstille 5,0 1011,9 90 -
03:54 3,6 2,1   Windstille 5,0 1011,9 90 -
03:59 3,6 2,1   Windstille   1011,9 90 -
04:04 3,7 2,4   Windstille   1011,9 91 -
04:09 3,7 2,4   Windstille   1011,9 91 -
04:14 3,7 2,4   Windstille   1011,9 91 -
04:19 3,7 2,4   Windstille   1011,9 91 -
04:24 3,8 2,5   Windstille   1011,9 91 -
04:29 3,9 2,6   Windstille   1011,9 91 -
04:34 4,0 2,8   Windstille   1011,9 92 -
04:39 4,0 2,8 6,0 NNW   1011,9 92 -
04:44 4,1 2,9 6,0 NNW 6,0 1011,9 92 -
04:49 4,1 2,9 5,0 NNW 6,0 1010,8 92 -
04:54 4,1 2,9 5,0 NNW 6,0 1010,8 92 -
04:59 4,1 2,9   Windstille 6,0 1010,8 92 -
05:04 4,1 2,9 5,0 NNW 6,0 1010,8 92 -
05:09 4,1 2,9 5,0 NNW 5,0 1010,8 92 -
05:14 4,0 2,8 6,0 NNW 6,0 1010,8 92 -
05:19 4,1 2,9 5,0 NNW 6,0 1010,8 92 -
05:24 4,1 2,9   Windstille 6,0 1010,8 92 -
05:29 4,1 2,9   Windstille 6,0 1010,8 92 -
05:34 4,1 2,9   Windstille 5,0 1010,8 92 -
05:39 4,1 2,9   Windstille 5,0 1010,8 92 -
05:44 4,1 2,9   Windstille   1010,8 92 -
05:49 4,1 2,9   Windstille   1010,8 92 -
05:52 4,1 2,9   Windstille   1010,8 92 -
05:59 4,0 2,8   Windstille   1010,8 92 -
06:04 4,0 2,8   Windstille   1010,8 92 -
06:09 3,9 2,7   Windstille   1010,8 92 -
06:14 3,9 2,7   Windstille   1010,8 92 -
06:19 3,8 2,6   Windstille   1010,8 92 -
06:24 3,8 2,5   Windstille   1010,8 91 -
06:29 3,7 2,4   Windstille   1010,8 91 -
06:34 3,7 2,4   Windstille   1010,8 91 -
06:39 3,6 2,3 5,0 NNW   1010,8 91 -
06:44 3,6 2,3 6,0 NNW   1010,8 91 -
06:49 3,5 2,2   Windstille 6,0 1010,8 91 -
06:54 3,5 2,2   Windstille 6,0 1010,8 91 -
06:59 3,5 2,2   Windstille 6,0 1010,8 91 -
07:02 3,4 2,1   Windstille 6,0 1010,8 91 -
07:09 3,3 2,0   Windstille   1010,8 91 -
07:14 3,2 1,9   Windstille   1010,8 91 -
07:19 3,2 1,9   Windstille   1010,8 91 -
07:24 3,2 1,9   Windstille   1010,8 91 -
07:29 3,3 2,0   Windstille   1010,8 91 -
07:34 3,3 2,0   Windstille   1010,8 91 -
07:39 3,3 2,0   Windstille   1010,8 91 -
07:44 3,2 1,9   Windstille   1010,8 91 -
07:49 3,2 1,9   Windstille   1009,8 91 -
07:54 3,2 1,9   Windstille   1009,8 91 -
07:59 3,2 1,9   Windstille   1010,8 91 -
08:04 3,2 1,9   Windstille   1010,8 91 -
08:09 3,3 2,1   Windstille   1010,8 92 -
08:14 3,3 2,1   Windstille   1010,8 92 -
08:19 3,3 2,1   Windstille   1010,8 92 -
08:24 3,4 2,2   Windstille   1010,8 92 -
08:29 3,4 2,2   Windstille   1010,8 92 -
08:34 3,5 2,3   Windstille   1009,8 92 -
08:39 3,6 2,4   Windstille   1009,8 92 -
08:44 3,7 2,5   Windstille   1009,8 92 -
08:49 3,8 2,9   Windstille   1009,8 94 -
08:54 3,9 3,0   Windstille   1009,8 94 -
08:59 4,2 3,3   Windstille   1009,8 94 -
09:04 4,3 3,4   Windstille   1009,8 94 -
09:09 4,5 3,8   Windstille   1009,8 95 -
09:14 4,6 3,9   Windstille   1009,8 95 -
09:19 4,8 4,1   Windstille   1009,8 95 -
09:24 5,1 4,4   Windstille   1009,8 95 -
09:29 5,5 4,8 6,0 NNW   1009,8 95 -
09:34 5,9 5,3   Windstille 6,0 1009,8 96 -
09:39 6,8 6,2 5,0 NNW 6,0 1009,8 96 -
09:44 7,8 7,4 10,0 NNW 6,0 1009,8 97 -
09:49 8,3 7,9 10,0 NNW 8,0 1008,8 97 -
09:54 8,9 8,6 11,0 NNW 11,0 1008,8 98 -
09:59 9,4 9,1 13,0 NNW 11,0 1008,8 98 -
10:04 9,8 9,5 15,0 NW 13,0 1009,8 98 -
10:09 10,1 9,5 15,0 NNW 13,0 1009,8 98 -
10:14 10,1 9,5 16,0 NW 15,0 1009,8 96 -
10:19 10,4 9,5 18,0 NNW 16,0 1009,8 95 -
10:24 10,7 9,7 15,0 NNW 18,0 1009,8 94 -
10:29 10,9 9,5 13,0 NNW 18,0 1009,8 92 -
10:34 11,2 9,3 13,0 NNW 18,0 1009,8 90 -
10:39 11,2 9,1 13,0 NNW 18,0 1009,8 87 -
10:44 11,4 8,8 13,0 NNW 15,0 1009,8 84 -
10:49 11,7 8,9 10,0 NNW 13,0 1009,8 83 -
10:54 11,8 9,0 8,0 Norden 13,0 1009,8 83 -
10:59 12,1 9,1 8,0 Norden 13,0 1009,8 82 -
11:04 12,3 9,3 10,0 NO 13,0 1009,8 82 -
11:09 12,4 9,3 8,0 NO 10,0 1009,8 82 -
11:14 12,6 9,4 10,0 Norden 10,0 1009,8 81 -
11:19 12,7 9,3 8,0 NNW 10,0 1008,8 80 -
11:24 12,8 9,4 10,0 Norden 10,0 1008,8 80 -
11:29 12,8 9,1 8,0 NNO 10,0 1008,8 78 -
11:34 12,9 9,2 13,0 NNW 10,0 1008,8 79 -
11:39 13,0 9,3 11,0 NW 13,0 1008,8 78 -
11:44 13,2 9,6 10,0 NW 13,0 1008,8 79 -
11:49 13,4 9,3 15,0 NNW 13,0 1008,8 76 -
11:54 13,5 9,4 13,0 NW 13,0 1008,8 76 -
11:59 13,5 9,2 13,0 NW 15,0 1008,8 75 -
12:04 13,6 8,9 13,0 NW 15,0 1008,8 73 -
12:09 13,7 9,1 10,0 NW 15,0 1008,8 74 -
12:14 13,8 8,5 10,0 NNW 13,0 1008,8 71 -
12:19 13,9 8,5 8,0 Norden 13,0 1008,8 70 -
12:24 14,0 8,8 10,0 Norden 10,0 1008,8 71 -
12:29 14,2 8,8 8,0 NNW 10,0 1008,8 71 -
12:34 14,3 9,3 13,0 NW 10,0 1007,8 72 -
12:39 14,6 10,0 13,0 NW 10,0 1007,8 74 -
12:44 14,6 9,8 10,0 NW 13,0 1008,8 73 -
12:49 14,7 9,8 8,0 WNW 13,0 1008,8 73 -
12:54 14,8 9,6 8,0 NNW 13,0 1008,8 71 -
12:59 14,8 9,2 8,0 WNW 13,0 1008,8 69 -
13:04 14,7 8,9 3,0 Süden 8,0 1008,8 68 -
13:09 15,0 9,3 6,0 SSW 8,0 1008,8 69 -
13:14 15,1 9,1 6,0 NNO 8,0 1008,8 68 -
13:19 15,2 9,1 8,0 NNO 8,0 1008,8 67 -
13:24 15,1 8,3 8,0 NW 8,0 1008,8 64 -
13:29 15,2 8,7 8,0 WSW 8,0 1008,8 65 -
13:34 15,3 8,8 8,0 WSW 8,0 1007,8 65 -
13:39 15,5 8,9 8,0 NW 8,0 1007,8 65 -
13:44 15,6 9,0 8,0 NNW 8,0 1007,8 65 -
13:49 15,7 9,1 10,0 WSW 8,0 1007,8 65 -
13:54 15,7 9,1 8,0 Westen 10,0 1007,8 65 -
13:59 15,6 8,8 10,0 WNW 10,0 1007,8 64 -
14:04 15,8 9,6 8,0 WNW 10,0 1007,8 67 -
14:09 15,9 9,3 8,0 Westen 10,0 1007,8 65 -
14:14 15,9 9,3 8,0 WNW 10,0 1007,8 65 -
14:19 15,9 9,1 10,0 WNW 10,0 1007,8 64 -
14:24 16,1 9,7 10,0 WSW 10,0 1007,8 66 -
14:29 16,3 9,8 11,0 SW 10,0 1007,8 66 -
14:34 16,3 9,9 13,0 SW 11,0 1007,8 66 -
14:39 16,2 9,4 10,0 SW 13,0 1007,8 64 -
14:44 16,3 9,5 10,0 SW 13,0 1007,8 64 -
14:49 16,3 9,5 10,0 Westen 13,0 1007,8 64 -
14:53 16,3 9,7 8,0 WSW 13,0 1007,8 65 -
14:59 16,4 9,6 10,0 WSW 10,0 1007,8 64 -
15:04 16,3 9,7 10,0 Westen 10,0 1007,8 65 -
15:09 16,3 9,7 11,0 WSW 10,0 1007,8 65 -
15:14 16,3 9,7 10,0 SW 11,0 1007,8 65 -
15:19 16,4 10,0 10,0 WSW 11,0 1007,8 66 -
15:24 16,3 9,5 13,0 Westen 11,0 1007,8 64 -
15:29 16,3 9,7 11,0 WNW 13,0 1007,8 65 -
15:34 16,2 9,6 10,0 Westen 13,0 1007,8 65 -
15:37 16,3 9,9 8,0 WNW 13,0 1007,8 66 -
15:44 16,3 9,7 6,0 WSW 11,0 1007,8 65 -
15:49 16,5 9,9 10,0 SSW 11,0 1007,8 65 -
15:54 16,5 9,9 8,0 WSW 10,0 1007,8 65 -
15:59 16,5 9,7 6,0 SW 10,0 1007,8 64 -
16:04 16,5 9,7 10,0 Westen 10,0 1007,8 64 -
16:09 16,3 9,2 6,0 Westen 10,0 1007,8 63 -
16:14 16,4 9,8 10,0 WSW 10,0 1007,8 65 -
16:18 16,5 9,7 8,0 WSW 10,0 1007,8 64 -
16:24 16,4 9,6 5,0 Westen 10,0 1007,8 64 -
16:29 16,5 9,7 8,0 SSW 10,0 1007,8 64 -
16:34 16,5 9,7 8,0 SW 10,0 1006,8 64 -
16:39 16,5 9,7 8,0 SW 10,0 1006,8 64 -
16:44 16,5 9,7 6,0 WSW 8,0 1006,8 64 -
16:49 16,4 9,6 5,0 SW 8,0 1006,8 64 -
16:54 16,4 9,8 6,0 SW 8,0 1006,8 65 -
16:59 16,4 9,8 10,0 SSW 6,0 1006,8 65 -
17:04 16,4 10,0 8,0 WSW 10,0 1006,8 66 -
17:09 16,4 10,0 10,0 WSW 10,0 1006,8 66 -
17:14 16,2 9,8 10,0 SW 10,0 1006,8 66 -
17:19 16,0 9,9 8,0 SW 10,0 1006,8 67 -
17:24 15,8 9,7 10,0 WSW 10,0 1006,8 67 -
17:29 15,5 9,5 10,0 WSW 10,0 1006,8 68 -
17:32 15,2 9,5 8,0 WSW 10,0 1006,8 69 -
17:39 15,0 9,7 8,0 WSW 10,0 1006,8 71 -
17:44 14,8 9,6 8,0 WSW 10,0 1006,8 71 -
17:49 14,6 9,4 6,0 WSW 10,0 1006,8 71 -
17:54 14,4 9,2 6,0 Westen 8,0 1006,8 71 -
17:59 14,2 9,0 6,0 WSW 8,0 1006,8 71 -
18:04 14,0 8,8 6,0 WSW 8,0 1006,8 72 -
18:09 13,8 8,8   Windstille 6,0 1006,8 72 -
18:14 13,6 8,6 5,0 WSW 6,0 1006,8 72 -
18:19 13,5 8,6   Windstille 6,0 1006,8 72 -
18:24 13,2 8,3   Windstille 5,0 1006,8 72 -
18:29 13,0 8,1   Windstille 5,0 1007,8 73 -
18:34 12,7 8,0   Windstille 5,0 1007,8 73 -
18:39 12,5 7,8   Windstille   1007,8 73 -
18:44 12,3 7,6   Windstille   1007,8 74 -
18:49 12,0 7,5   Windstille   1007,8 74 -
18:54 11,7 7,2   Windstille   1007,8 74 -
18:59 11,5 7,1   Windstille   1007,8 75 -
19:04 11,3 7,0   Windstille   1007,8 75 -
19:09 11,1 6,8   Windstille   1007,8 75 -
19:14 10,8 6,7   Windstille   1007,8 76 -
19:19 10,6 6,5   Windstille   1007,8 76 -
19:24 10,4 6,4   Windstille   1007,8 76 -
19:29 10,2 6,5   Windstille   1007,8 78 -
19:34 10,0 6,0   Windstille   1007,8 76 -
19:39 9,8 5,8   Windstille   1007,8 76 -
19:44 9,5 5,5   Windstille   1007,8 76 -
19:49 9,2 5,2   Windstille   1007,8 76 -
19:54 9,1 5,3   Windstille   1007,8 78 -
19:59 8,9 5,3   Windstille   1007,8 78 -
20:04 8,7 5,3   Windstille   1007,8 79 -
20:09 8,6 5,2   Windstille   1007,8 79 -
20:14 8,5 5,1   Windstille   1007,8 79 -
20:19 8,3 4,9   Windstille   1007,8 79 -
20:24 8,1 4,7   Windstille   1007,8 79 -
20:29 8,0 4,4   Windstille   1007,8 78 -
20:34 7,8 4,2   Windstille   1007,8 78 -
20:39 7,6 4,0   Windstille   1007,8 78 -
20:44 7,4 3,8   Windstille   1007,8 78 -
20:49 7,2 3,6   Windstille   1007,8 78 -
20:54 7,0 3,5   Windstille   1007,8 79 -
20:59 6,8 3,4   Windstille   1007,8 79 -
21:04 6,6 3,2   Windstille   1007,8 79 -
21:09 6,5 3,3   Windstille   1007,8 80 -
21:14 6,4 3,2   Windstille   1007,8 80 -
21:19 6,4 3,4   Windstille   1007,8 81 -
21:24 6,3 3,3   Windstille   1007,8 81 -
21:29 6,2 3,2   Windstille   1007,8 81 -
21:34 6,1 2,9   Windstille   1007,8 80 -
21:39 6,0 2,8   Windstille   1007,8 80 -
21:44 5,9 2,9   Windstille   1007,8 81 -
21:49 5,9 2,9   Windstille   1007,8 81 -
21:54 5,8 2,8   Windstille   1007,8 81 -
21:59 5,8 2,8   Windstille   1007,8 81 -
22:04 5,8 3,0   Windstille   1007,8 82 -
22:09 5,8 3,0   Windstille   1007,8 82 -
22:13 5,8 3,0   Windstille   1007,8 82 -
22:19 5,9 3,2   Windstille   1007,8 83 -
22:24 6,0 3,5   Windstille   1007,8 84 -
22:29 6,0 3,5   Windstille   1007,8 84 -
Täglich Zusammenfassung für Donnerstag Oct 1 2020
Zeit Temp. ( °C ) Taupt. ( °C ) Wind ( km/h ) von Windböen ( km/h ) Luftdruck ( hPa ) Luftf.( % ) Regenrate ( cm )
Hoch16,5 10,0 18,0 NNW ( 317/1061 ) 18,0 1013,9 98 -
Durchchnittswerte8,9 5,6 4,0 Windstille #145/264 5,0 1009,5 81 -
Tief3,2 1,6 -   0,0 1006,8 63 -
Täglich tabellarische Details für Donnerstag Oct 1 2020
Zeit Temp. ( °C ) Taupt. ( °C ) Wind ( km/h ) von Windböen ( km/h ) Luftdruck ( hPa ) Luftf.( % ) Regenrate ( cm )
00:00 4,2 2,2   Windstille 5,0 1013,9 87 -
00:39 3,9 2,1   Windstille 5,0 1013,9 88 -
00:44 3,9 2,1   Windstille 5,0 1013,9 88 -
00:49 3,9 2,1   Windstille   1013,9 88 -
00:54 3,9 2,3   Windstille   1013,9 89 -
00:59 3,9 2,3   Windstille   1013,9 89 -
01:04 3,9 2,3   Windstille   1013,9 89 -
01:09 3,8 2,2   Windstille   1013,9 89 -
01:14 3,8 2,0   Windstille   1013,9 88 -
01:19 3,7 1,9   Windstille   1012,9 88 -
01:24 3,7 1,9   Windstille   1012,9 88 -
01:29 3,6 1,8   Windstille   1012,9 88 -
01:34 3,6 1,8   Windstille   1012,9 88 -
01:39 3,5 1,7   Windstille   1012,9 88 -
01:44 3,5 1,7 6,0 NNW   1012,9 88 -
01:49 3,4 1,6 6,0 NNW 6,0 1012,9 88 -
01:54 3,4 1,6 5,0 NNW 6,0 1012,9 88 -
01:59 3,4 1,6   Windstille 6,0 1012,9 88 -
02:04 3,4 1,6   Windstille 6,0 1012,9 88 -
02:09 3,4 1,8   Windstille 6,0 1012,9 89 -
02:14 3,5 1,9   Windstille 3,0 1012,9 89 -
02:19 3,5 1,9   Windstille   1012,9 89 -
02:24 3,5 1,9   Windstille   1012,9 89 -
02:29 3,5 1,9   Windstille   1012,9 89 -
02:34 3,5 1,9   Windstille   1012,9 89 -
02:39 3,6 2,1   Windstille   1012,9 90 -
02:44 3,6 2,1   Windstille   1012,9 90 -
02:49 3,7 2,2   Windstille   1012,9 90 -
02:54 3,7 2,2   Windstille   1012,9 90 -
02:59 3,7 2,2   Windstille   1012,9 90 -
03:04 3,7 2,2   Windstille   1011,9 90 -
03:09 3,7 2,2   Windstille   1011,9 90 -
03:14 3,7 2,2   Windstille   1011,9 90 -
03:19 3,7 2,2   Windstille   1011,9 90 -
03:24 3,7 2,2   Windstille   1011,9 90 -
03:29 3,6 2,1 5,0 NNW   1011,9 90 -
03:34 3,6 2,1 6,0 NNW 5,0 1011,9 90 -
03:39 3,6 2,1   Windstille 6,0 1011,9 90 -
03:43 3,6 2,1   Windstille 6,0 1011,9 90 -
03:49 3,6 2,1   Windstille 5,0 1011,9 90 -
03:54 3,6 2,1   Windstille 5,0 1011,9 90 -
03:59 3,6 2,1   Windstille   1011,9 90 -
04:04 3,7 2,4   Windstille   1011,9 91 -
04:09 3,7 2,4   Windstille   1011,9 91 -
04:14 3,7 2,4   Windstille   1011,9 91 -
04:19 3,7 2,4   Windstille   1011,9 91 -
04:24 3,8 2,5   Windstille   1011,9 91 -
04:29 3,9 2,6   Windstille   1011,9 91 -
04:34 4,0 2,8   Windstille   1011,9 92 -
04:39 4,0 2,8 6,0 NNW   1011,9 92 -
04:44 4,1 2,9 6,0 NNW 6,0 1011,9 92 -
04:49 4,1 2,9 5,0 NNW 6,0 1010,8 92 -
04:54 4,1 2,9 5,0 NNW 6,0 1010,8 92 -
04:59 4,1 2,9   Windstille 6,0 1010,8 92 -
05:04 4,1 2,9 5,0 NNW 6,0 1010,8 92 -
05:09 4,1 2,9 5,0 NNW 5,0 1010,8 92 -
05:14 4,0 2,8 6,0 NNW 6,0 1010,8 92 -
05:19 4,1 2,9 5,0 NNW 6,0 1010,8 92 -
05:24 4,1 2,9   Windstille 6,0 1010,8 92 -
05:29 4,1 2,9   Windstille 6,0 1010,8 92 -
05:34 4,1 2,9   Windstille 5,0 1010,8 92 -
05:39 4,1 2,9   Windstille 5,0 1010,8 92 -
05:44 4,1 2,9   Windstille   1010,8 92 -
05:49 4,1 2,9   Windstille   1010,8 92 -
05:52 4,1 2,9   Windstille   1010,8 92 -
05:59 4,0 2,8   Windstille   1010,8 92 -
06:04 4,0 2,8   Windstille   1010,8 92 -
06:09 3,9 2,7   Windstille   1010,8 92 -
06:14 3,9 2,7   Windstille   1010,8 92 -
06:19 3,8 2,6   Windstille   1010,8 92 -
06:24 3,8 2,5   Windstille   1010,8 91 -
06:29 3,7 2,4   Windstille   1010,8 91 -
06:34 3,7 2,4   Windstille   1010,8 91 -
06:39 3,6 2,3 5,0 NNW   1010,8 91 -
06:44 3,6 2,3 6,0 NNW   1010,8 91 -
06:49 3,5 2,2   Windstille 6,0 1010,8 91 -
06:54 3,5 2,2   Windstille 6,0 1010,8 91 -
06:59 3,5 2,2   Windstille 6,0 1010,8 91 -
07:02 3,4 2,1   Windstille 6,0 1010,8 91 -
07:09 3,3 2,0   Windstille   1010,8 91 -
07:14 3,2 1,9   Windstille   1010,8 91 -
07:19 3,2 1,9   Windstille   1010,8 91 -
07:24 3,2 1,9   Windstille   1010,8 91 -
07:29 3,3 2,0   Windstille   1010,8 91 -
07:34 3,3 2,0   Windstille   1010,8 91 -
07:39 3,3 2,0   Windstille   1010,8 91 -
07:44 3,2 1,9   Windstille   1010,8 91 -
07:49 3,2 1,9   Windstille   1009,8 91 -
07:54 3,2 1,9   Windstille   1009,8 91 -
07:59 3,2 1,9   Windstille   1010,8 91 -
08:04 3,2 1,9   Windstille   1010,8 91 -
08:09 3,3 2,1   Windstille   1010,8 92 -
08:14 3,3 2,1   Windstille   1010,8 92 -
08:19 3,3 2,1   Windstille   1010,8 92 -
08:24 3,4 2,2   Windstille   1010,8 92 -
08:29 3,4 2,2   Windstille   1010,8 92 -
08:34 3,5 2,3   Windstille   1009,8 92 -
08:39 3,6 2,4   Windstille   1009,8 92 -
08:44 3,7 2,5   Windstille   1009,8 92 -
08:49 3,8 2,9   Windstille   1009,8 94 -
08:54 3,9 3,0   Windstille   1009,8 94 -
08:59 4,2 3,3   Windstille   1009,8 94 -
09:04 4,3 3,4   Windstille   1009,8 94 -
09:09 4,5 3,8   Windstille   1009,8 95 -
09:14 4,6 3,9   Windstille   1009,8 95 -
09:19 4,8 4,1   Windstille   1009,8 95 -
09:24 5,1 4,4   Windstille   1009,8 95 -
09:29 5,5 4,8 6,0 NNW   1009,8 95 -
09:34 5,9 5,3   Windstille 6,0 1009,8 96 -
09:39 6,8 6,2 5,0 NNW 6,0 1009,8 96 -
09:44 7,8 7,4 10,0 NNW 6,0 1009,8 97 -
09:49 8,3 7,9 10,0 NNW 8,0 1008,8 97 -
09:54 8,9 8,6 11,0 NNW 11,0 1008,8 98 -
09:59 9,4 9,1 13,0 NNW 11,0 1008,8 98 -
10:04 9,8 9,5 15,0 NW 13,0 1009,8 98 -
10:09 10,1 9,5 15,0 NNW 13,0 1009,8 98 -
10:14 10,1 9,5 16,0 NW 15,0 1009,8 96 -
10:19 10,4 9,5 18,0 NNW 16,0 1009,8 95 -
10:24 10,7 9,7 15,0 NNW 18,0 1009,8 94 -
10:29 10,9 9,5 13,0 NNW 18,0 1009,8 92 -
10:34 11,2 9,3 13,0 NNW 18,0 1009,8 90 -
10:39 11,2 9,1 13,0 NNW 18,0 1009,8 87 -
10:44 11,4 8,8 13,0 NNW 15,0 1009,8 84 -
10:49 11,7 8,9 10,0 NNW 13,0 1009,8 83 -
10:54 11,8 9,0 8,0 Norden 13,0 1009,8 83 -
10:59 12,1 9,1 8,0 Norden 13,0 1009,8 82 -
11:04 12,3 9,3 10,0 NO 13,0 1009,8 82 -
11:09 12,4 9,3 8,0 NO 10,0 1009,8 82 -
11:14 12,6 9,4 10,0 Norden 10,0 1009,8 81 -
11:19 12,7 9,3 8,0 NNW 10,0 1008,8 80 -
11:24 12,8 9,4 10,0 Norden 10,0 1008,8 80 -
11:29 12,8 9,1 8,0 NNO 10,0 1008,8 78 -
11:34 12,9 9,2 13,0 NNW 10,0 1008,8 79 -
11:39 13,0 9,3 11,0 NW 13,0 1008,8 78 -
11:44 13,2 9,6 10,0 NW 13,0 1008,8 79 -
11:49 13,4 9,3 15,0 NNW 13,0 1008,8 76 -
11:54 13,5 9,4 13,0 NW 13,0 1008,8 76 -
11:59 13,5 9,2 13,0 NW 15,0 1008,8 75 -
12:04 13,6 8,9 13,0 NW 15,0 1008,8 73 -
12:09 13,7 9,1 10,0 NW 15,0 1008,8 74 -
12:14 13,8 8,5 10,0 NNW 13,0 1008,8 71 -
12:19 13,9 8,5 8,0 Norden 13,0 1008,8 70 -
12:24 14,0 8,8 10,0 Norden 10,0 1008,8 71 -
12:29 14,2 8,8 8,0 NNW 10,0 1008,8 71 -
12:34 14,3 9,3 13,0 NW 10,0 1007,8 72 -
12:39 14,6 10,0 13,0 NW 10,0 1007,8 74 -
12:44 14,6 9,8 10,0 NW 13,0 1008,8 73 -
12:49 14,7 9,8 8,0 WNW 13,0 1008,8 73 -
12:54 14,8 9,6 8,0 NNW 13,0 1008,8 71 -
12:59 14,8 9,2 8,0 WNW 13,0 1008,8 69 -
13:04 14,7 8,9 3,0 Süden 8,0 1008,8 68 -
13:09 15,0 9,3 6,0 SSW 8,0 1008,8 69 -
13:14 15,1 9,1 6,0 NNO 8,0 1008,8 68 -
13:19 15,2 9,1 8,0 NNO 8,0 1008,8 67 -
13:24 15,1 8,3 8,0 NW 8,0 1008,8 64 -
13:29 15,2 8,7 8,0 WSW 8,0 1008,8 65 -
13:34 15,3 8,8 8,0 WSW 8,0 1007,8 65 -
13:39 15,5 8,9 8,0 NW 8,0 1007,8 65 -
13:44 15,6 9,0 8,0 NNW 8,0 1007,8 65 -
13:49 15,7 9,1 10,0 WSW 8,0 1007,8 65 -
13:54 15,7 9,1 8,0 Westen 10,0 1007,8 65 -
13:59 15,6 8,8 10,0 WNW 10,0 1007,8 64 -
14:04 15,8 9,6 8,0 WNW 10,0 1007,8 67 -
14:09 15,9 9,3 8,0 Westen 10,0 1007,8 65 -
14:14 15,9 9,3 8,0 WNW 10,0 1007,8 65 -
14:19 15,9 9,1 10,0 WNW 10,0 1007,8 64 -
14:24 16,1 9,7 10,0 WSW 10,0 1007,8 66 -
14:29 16,3 9,8 11,0 SW 10,0 1007,8 66 -
14:34 16,3 9,9 13,0 SW 11,0 1007,8 66 -
14:39 16,2 9,4 10,0 SW 13,0 1007,8 64 -
14:44 16,3 9,5 10,0 SW 13,0 1007,8 64 -
14:49 16,3 9,5 10,0 Westen 13,0 1007,8 64 -
14:53 16,3 9,7 8,0 WSW 13,0 1007,8 65 -
14:59 16,4 9,6 10,0 WSW 10,0 1007,8 64 -
15:04 16,3 9,7 10,0 Westen 10,0 1007,8 65 -
15:09 16,3 9,7 11,0 WSW 10,0 1007,8 65 -
15:14 16,3 9,7 10,0 SW 11,0 1007,8 65 -
15:19 16,4 10,0 10,0 WSW 11,0 1007,8 66 -
15:24 16,3 9,5 13,0 Westen 11,0 1007,8 64 -
15:29 16,3 9,7 11,0 WNW 13,0 1007,8 65 -
15:34 16,2 9,6 10,0 Westen 13,0 1007,8 65 -
15:37 16,3 9,9 8,0 WNW 13,0 1007,8 66 -
15:44 16,3 9,7 6,0 WSW 11,0 1007,8 65 -
15:49 16,5 9,9 10,0 SSW 11,0 1007,8 65 -
15:54 16,5 9,9 8,0 WSW 10,0 1007,8 65 -
15:59 16,5 9,7 6,0 SW 10,0 1007,8 64 -
16:04 16,5 9,7 10,0 Westen 10,0 1007,8 64 -
16:09 16,3 9,2 6,0 Westen 10,0 1007,8 63 -
16:14 16,4 9,8 10,0 WSW 10,0 1007,8 65 -
16:18 16,5 9,7 8,0 WSW 10,0 1007,8 64 -
16:24 16,4 9,6 5,0 Westen 10,0 1007,8 64 -
16:29 16,5 9,7 8,0 SSW 10,0 1007,8 64 -
16:34 16,5 9,7 8,0 SW 10,0 1006,8 64 -
16:39 16,5 9,7 8,0 SW 10,0 1006,8 64 -
16:44 16,5 9,7 6,0 WSW 8,0 1006,8 64 -
16:49 16,4 9,6 5,0 SW 8,0 1006,8 64 -
16:54 16,4 9,8 6,0 SW 8,0 1006,8 65 -
16:59 16,4 9,8 10,0 SSW 6,0 1006,8 65 -
17:04 16,4 10,0 8,0 WSW 10,0 1006,8 66 -
17:09 16,4 10,0 10,0 WSW 10,0 1006,8 66 -
17:14 16,2 9,8 10,0 SW 10,0 1006,8 66 -
17:19 16,0 9,9 8,0 SW 10,0 1006,8 67 -
17:24 15,8 9,7 10,0 WSW 10,0 1006,8 67 -
17:29 15,5 9,5 10,0 WSW 10,0 1006,8 68 -
17:32 15,2 9,5 8,0 WSW 10,0 1006,8 69 -
17:39 15,0 9,7 8,0 WSW 10,0 1006,8 71 -
17:44 14,8 9,6 8,0 WSW 10,0 1006,8 71 -
17:49 14,6 9,4 6,0 WSW 10,0 1006,8 71 -
17:54 14,4 9,2 6,0 Westen 8,0 1006,8 71 -
17:59 14,2 9,0 6,0 WSW 8,0 1006,8 71 -
18:04 14,0 8,8 6,0 WSW 8,0 1006,8 72 -
18:09 13,8 8,8   Windstille 6,0 1006,8 72 -
18:14 13,6 8,6 5,0 WSW 6,0 1006,8 72 -
18:19 13,5 8,6   Windstille 6,0 1006,8 72 -
18:24 13,2 8,3   Windstille 5,0 1006,8 72 -
18:29 13,0 8,1   Windstille 5,0 1007,8 73 -
18:34 12,7 8,0   Windstille 5,0 1007,8 73 -
18:39 12,5 7,8   Windstille   1007,8 73 -
18:44 12,3 7,6   Windstille   1007,8 74 -
18:49 12,0 7,5   Windstille   1007,8 74 -
18:54 11,7 7,2   Windstille   1007,8 74 -
18:59 11,5 7,1   Windstille   1007,8 75 -
19:04 11,3 7,0   Windstille   1007,8 75 -
19:09 11,1 6,8   Windstille   1007,8 75 -
19:14 10,8 6,7   Windstille   1007,8 76 -
19:19 10,6 6,5   Windstille   1007,8 76 -
19:24 10,4 6,4   Windstille   1007,8 76 -
19:29 10,2 6,5   Windstille   1007,8 78 -
19:34 10,0 6,0   Windstille   1007,8 76 -
19:39 9,8 5,8   Windstille   1007,8 76 -
19:44 9,5 5,5   Windstille   1007,8 76 -
19:49 9,2 5,2   Windstille   1007,8 76 -
19:54 9,1 5,3   Windstille   1007,8 78 -
19:59 8,9 5,3   Windstille   1007,8 78 -
20:04 8,7 5,3   Windstille   1007,8 79 -
20:09 8,6 5,2   Windstille   1007,8 79 -
20:14 8,5 5,1   Windstille   1007,8 79 -
20:19 8,3 4,9   Windstille   1007,8 79 -
20:24 8,1 4,7   Windstille   1007,8 79 -
20:29 8,0 4,4   Windstille   1007,8 78 -
20:34 7,8 4,2   Windstille   1007,8 78 -
20:39 7,6 4,0   Windstille   1007,8 78 -
20:44 7,4 3,8   Windstille   1007,8 78 -
20:49 7,2 3,6   Windstille   1007,8 78 -
20:54 7,0 3,5   Windstille   1007,8 79 -
20:59 6,8 3,4   Windstille   1007,8 79 -
21:04 6,6 3,2   Windstille   1007,8 79 -
21:09 6,5 3,3   Windstille   1007,8 80 -
21:14 6,4 3,2   Windstille   1007,8 80 -
21:19 6,4 3,4   Windstille   1007,8 81 -
21:24 6,3 3,3   Windstille   1007,8 81 -
21:29 6,2 3,2   Windstille   1007,8 81 -
21:34 6,1 2,9   Windstille   1007,8 80 -
21:39 6,0 2,8   Windstille   1007,8 80 -
21:44 5,9 2,9   Windstille   1007,8 81 -
21:49 5,9 2,9   Windstille   1007,8 81 -
21:54 5,8 2,8   Windstille   1007,8 81 -
21:59 5,8 2,8   Windstille   1007,8 81 -
22:04 5,8 3,0   Windstille   1007,8 82 -
22:09 5,8 3,0   Windstille   1007,8 82 -
22:13 5,8 3,0   Windstille   1007,8 82 -
22:19 5,9 3,2   Windstille   1007,8 83 -
22:24 6,0 3,5   Windstille   1007,8 84 -
22:29 6,0 3,5   Windstille   1007,8 84 -

Lade ein Kopie deiner Daten  here

Meine Wetterdaten gespeichert auf Weather Underground. Script entwickelt von Jim McMurry. Rewritten for template use Leuven-Template